951  
ASUS44 KEWX 252010  
RWREWX  
SOUTH TEXAS REGIONAL WEATHER ROUNDUP  
NATIONAL WEATHER SERVICE AUSTIN/SAN ANTONIO TX  
300 PM CDT SUN AUG 25 2019  
 
NOTE: "FAIR" INDICATED FEW OR NO CLOUDS BELOW 12,000 FEET WITH NO  
SIGNIFICANT WEATHER AND/OR S TO VISIBILITY
.  
 
* - THESE STATIONS ARE NOT NWS OR FAA STATIONS...AND ARE NOT SUBJECT  
TO NWS AND FAA QUALITY CONTROL.
 
 
TXZ171-172-183>190-252100-  
TEXAS HILL COUNTRY AND EDWARDS PLATEAU  
 
CITY SKY/WX TMP DP RH WIND PRES REMARKS
 
JUNCTION SUNNY 97 70 41 SW9 29.85F HX 103  
*LLANO MOSUNNY 100 66 32 NW7 29.83F HX 104  
BURNET MOSUNNY 94 68 42 SE7 29.85F HX 98  
*HORSESHOE BAY SUNNY 97 68 38 CALM 29.82F HX 101  
*KERRVILLE MOSUNNY 97 70 42 CALM 29.86F HX 104  
*FREDERICKSBRG MOSUNNY 94 65 39 SW7 29.86F HX 96  
*ROCKSPRINGS MOSUNNY 91 70 49 CALM 29.96F HX 97  
*BOERNE MOSUNNY 91 70 49 S8 29.86F HX 97  
*CASTROVILLE MOSUNNY 97 67 37 SW6 29.82F HX 101  
HONDO MOSUNNY 97 70 41 VRB3 29.82F HX 103  
*UVALDE SUNNY 95 71 46 SW5 29.84F HX 102  
DEL RIO SUNNY 99 70 38 MISG 29.80F HX 106  
LAUGHLIN AFB SUNNY 98 70 40 S7 29.81F HX 105  
SPOFFORD SUNNY 97 71 43 CALM 29.76F HX 105  
*EAGLE PASS SUNNY 99 70 39 VRB7 29.81F HX 105  
CARRIZO SPRGS SUNNY 97 72 44 SE7 29.79F HX 105  

 
 
TXZ173-191>194-202-209-217>225-228-252100-  
CENTRAL AND SOUTH CENTRAL TEXAS  
 
CITY SKY/WX TMP DP RH WIND PRES REMARKS
 
GEORGETOWN MOSUNNY 95 72 47 VRB3 29.83F HX 103  
AUSTIN/BERGSTM MOSUNNY 97 73 45 S5 29.79F HX 107  
AUSTIN/MABRY MOSUNNY 98 67 36 VRB3 29.81F HX 102  
*AUSTIN/EXEC MOSUNNY 93 72 49 CALM 29.81F HX 100  
*LAGO VISTA SUNNY 94 72 47 S6 29.84F HX 101  
SAN MARCOS PTSUNNY 97 73 45 VRB6 29.80F HX 107  
NEW BRAUNFELS PTSUNNY 96 71 44 S8 29.79F HX 103  
RANDOLPH AFB MOSUNNY 97 72 44 NW6 29.80F HX 105  
SEGUIN SUNNY 96 71 43 CALM 29.83F HX 103  
KELLY FIELD MOSUNNY 97 69 40 E7 29.79F HX 102  
SAN ANTONIO MOSUNNY 95 71 45 VRB5 29.81F HX 102  
STINSON FIELD PTSUNNY 100 71 39 MISG 29.78F HX 108  
PLEASANTON MOSUNNY 99 69 37 S5 29.80F HX 105  
*LA GRANGE PTSUNNY 97 75 50 SE7 29.78F HX 109  
*GIDDINGS MOSUNNY 99 72 41 SW3 29.81F HX 108  
*GONZALES PTSUNNY 98 74 46 S5 29.79F HX 110  

 
 
TXZ163>164-176>182-195>201-210>213-226-227-235-252100-  
SOUTHEAST TEXAS  
 
CITY SKY/WX TMP DP RH WIND PRES REMARKS
 
COLLEGE STN SUNNY 95 72 47 S7 29.80F HX 103  
*BRYAN SUNNY 97 72 44 CALM 29.82F HX 106  
*CALDWELL MOSUNNY 95 72 46 CALM 29.81F HX 103  
*CROCKETT PTSUNNY 93 73 52 N3 29.83F HX 102  
*BRENHAM MOSUNNY 97 73 46 CALM 29.81F HX 106  
HUNTSVILLE SUNNY 95 70 44 CALM 29.83F HX 101  
CONROE PTSUNNY 87 79 76 SE8 29.84R THUNDER HX 101  
HOUSTON BUSH TSTM 77 75 93 S10 29.88R FOG  
HOUSTON HOBBY PTSUNNY 78 75 90 NE7 29.87S THUNDER  
*HOUSTON SW AP LGT RAIN 79 77 95 CALM 29.87S  
PEARLAND LGT RAIN 79 76 90 NE3 29.88F  
HOUSTON HOOKS CLOUDY 80 75 84 E12 29.86R  
ELLINGTON FLD CLOUDY 73 73 100 N5 29.85F  
SUGAR LAND FAIR 87 80 79 E7 29.84F HX 103  
*HOUSTON EXEC DRIZZLE 82 79 89 SW5 29.85F HX 93  
*CLEVELAND MUN CLOUDY 87 79 77 E7 29.85S HX 101  
*WHARTON PTSUNNY 90 75 60 S12G18 29.84F HX 100  
*COLUMBUS FAIR 96 69 40 S9 29.81F HX 101  
*EAGLE LAKE CLOUDY 92 78 63 S13G20 29.80 HX 108  

 
 
TXZ214>216-236>238-252100-  
THE UPPER TEXAS COAST  
 
CITY SKY/WX TMP DP RH WIND PRES REMARKS
 
*ORANGE CLOUDY 77 77 100 SW3 29.89F  
PORT ARTHUR LGT RAIN 76 73 91 SW7 29.87F  
GALVESTON LGT RAIN 83 80 91 S7 29.87S HX 95  
ANGLETON FAIR 87 77 72 S8 29.85F HX 99  
*BAY CITY MOSUNNY 84 79 85 S6 29.85F HX 97  
PALACIOS SUNNY 80 74 81 CALM 29.83F  

 
 
TXZ229>234-239>247-252100-  
TEXAS COASTAL BEND AND RIO GRANDE PLAINS  
 
CITY SKY/WX TMP DP RH WIND PRES REMARKS
 
VICTORIA LGT RAIN 89 80 74 SE14 29.81F HX 106  
*BEEVILLE NOT AVBL  
ROCKPORT MOSUNNY 87 79 76 SE13 29.81F HX 101  
*PORT ARANSAS MOSUNNY 88 80 77 SE12 29.84S HX 105  
*PORT LAVACA SUNNY 86 80 81 S10 29.82F HX 100  
*INGLESIDE MOSUNNY 90 80 71 S14 29.82S HX 107  
CORPUS CHRISTI PTSUNNY 86 78 77 SE16 29.80F THUNDER HX 98  
CORPUS NAS PTSUNNY 86 82 88 SE15 29.81F THUNDER HX 104  
*ROBSTOWN SUNNY 92 77 60 SE20G26 29.79F HX 106  
ALICE MOSUNNY 102 69 34 CALM 29.77F HX 109  
KINGSVILLE NAS PTSUNNY 97 77 52 SE16G23 29.77F HX 112  
COTULLA SUNNY 102 67 31 S7 29.78F HX 107  
LAREDO SUNNY 99 71 40 W6 29.78F HX 107  

 
 
TXZ248>255-252100-  
DEEP SOUTH TEXAS  
 
CITY SKY/WX TMP DP RH WIND PRES REMARKS
 
BROWNSVILLE FAIR 98 79 54 SE20G26 29.78F HX 116  
PORT ISABEL FAIR 93 76 57 SE18G26 29.78F HX 105  
HARLINGEN PTSUNNY 100 74 43 S17 29.76F HX 112  
*HEBBRONVILLE MOSUNNY 89 73 59 CALM 29.81F HX 96  
MCALLEN PTSUNNY 102 70 35 S9 29.76F HX 110  
*WESLACO SUNNY 99 73 42 S9G16 29.76 HX 109  
FALFURRIAS MOSUNNY 101 69 34 SE5 29.76F HX 107  
EDINBURG PTSUNNY 102 65 30 S9G16 29.76F HX 106  
*ZAPATA NOT AVBL  

 
 
TXZ213>215-236>238-242>244-246-247-251-254-255-252100-  
CMAN STATIONS  
 
STATION/POSITION TIME TEMP WIND PRES WAVE
 
AIR SEA DIR/SP/G HT/PER  
(UTC) (F) (DEG/KT/KT) (MB) (FT/S)  
SABINE PASS 1918 78 87 290/ 3/ 4 1014.2  
NORTH JETTY/GLS 1918 80 86 240/ 7/ 7 1010.5  
EAGLE POINT 1918 76 87 310/ 4/ 6 1010.9  
MORGANS POINT 1930 77 88 260/ 4/ 5 1011.8  
PORT O'CONNOR 1918 83 88 CALM / 2 1011.0  
PORT ARANSAS 2000 85 88 140/ 12/ 14 1009.9  
MALAQUITE BEACH 1918 86 87 120/ 14/ 16 1009.4  
BAFFIN BAY 1918 87 92 120/ 16/ 20 1009.3  
PORT ISABEL 1918 87 82 140/ 19/ 22 1009.8  

 
 
 
CLICK HERE TO GO TO PREVIOUS BULLETINS.

The Nexlab TX Page Main Text Page